Погода в Икитосе

Перу     3°44′09″S   73°14′54″W
темп.,
°C
ветер,
м/с
пор.,
м/с
влажн.,
%
обл.,
%
осадки,
мм/ч
давл.,
гПа
погр.,
м
13 мая, чт
чт1301:00+22зсз0010038 1.6 101321
04:00+21з009934 0.0 101216
07:00+23зюз119634 0.0 1014124
10:00+30сз006136 0.0 10151061
13:00+28ююв118119 2.2 1011814
16:00+27ююз01889 2.4 1009298
19:00+23всв009757 5.4 101111
22:00+22вюв129994 0.3 101343
14 мая, пт
пт1401:00+22ююв0099100 0.9 101217
04:00+22вюв0199100 0.3 101121
07:00+23юв119981 0.6 101370
10:00+27вюв228270 0.3 1014711
13:00+29з01716 1.8 1010660
16:00+28юв117739 1.6 1008491
19:00+23юв11985 2.6 101011
22:00+23вюв119990 1.9 101219
15 мая, сб
сб1501:00+22юв1199100 2.1 101215
04:00+22юв0199100 0.5 101120
07:00+22з009997 2.6 101330
10:00+25ссв119699 4.6 1014134
13:00+25ссв019779 8.8 1011157
16:00+24ссз1198100 2.1 100937
19:00+23з019979 2.3 101215
22:00+22зюз0099100 0.2 101316
16 мая, вс
вс1601:00+22з019996 0.3 101220
04:00+22ю00100100 0.0 101124
07:00+23ю029998 0.3 1014109
10:00+24ююв0298100 1.7 1015221
13:00+23вюв1599100 6.7 1013329
16:00+22ююв14100100 9.6 1011198
19:00+22юв13100100 11.4 1013100
22:00+22в009994 0.0 101420
17 мая, пн
пн1701:00+22в0010074 0.0 101322
04:00+21ю1110085 0.0 101325
07:00+22ю0110070 0.0 101553
10:00+26юв227941 0.1 1016703
13:00+27вюв128147 1.8 1013641
16:00+26всв129359 2.8 1011414
19:00+23св1599100 5.6 1014181
22:00+22св149994 0.0 1015155